[[{"header":{"parameterUnit":"m.s-1","parameterCategory":1,"la1":30.2991,"la2":30.254,"lo1":-89.0895,"lo2":-89.0444,"dy":0.0017,"dx":0.0017,"nx":28,"ny":28,"refTime":"2024-08-19T09:00:00:Z","depth":0,"parameterNumber":2,"parameterNumberName":"U-component_of_WINDS"},"data":[0,0,0,0,0,0,0,0,0,0,0,0,0,0,0,0,0,0,0,0,0,0,0,0,0,0,0,0,0,0,0,0,0,0,0,0,0,0,0,0,0,0,0,0,0,0,0,0,0,0,0,0,0,0,0,0,0,0,-0.1722,-0.1721,0,-0.1644,-0.1643,-0.1642,-0.1605,-0.1605,-0.1605,-0.1605,-0.1526,-0.1524,-0.1522,0,0,0,0,0,0,0,0,0,0,0,0,0,-0.1841,-0.1839,-0.1722,-0.1721,-0.172,-0.1644,-0.1643,-0.1642,-0.1605,-0.1605,-0.1605,-0.1605,-0.1527,-0.1524,-0.1522,0,0,0,0,0,0,0,0,0,0,0,0,0,-0.1779,-0.1839,-0.1723,-0.1693,-0.1689,-0.1644,-0.1643,-0.1641,-0.1605,-0.1605,-0.1605,-0.1605,-0.1528,-0.1525,-0.1521,-0.15,0,0,-0.1512,-0.151,0,0,0,0,0,0,0,0,-0.1782,-0.1775,-0.1698,-0.1695,-0.1691,-0.1634,-0.1656,-0.1594,-0.1605,-0.1637,-0.1605,-0.1605,-0.1562,-0.1556,-0.1541,-0.1496,-0.1493,-0.1511,-0.1509,-0.1508,-0.1507,0,0,0,0,0,0,0,-0.1787,-0.1778,-0.1691,-0.1697,-0.1693,-0.1684,-0.1675,-0.1644,-0.16,-0.1634,-0.1632,-0.1623,-0.156,-0.1545,-0.1539,-0.1492,-0.1511,-0.1508,-0.1507,-0.1505,-0.1424,-0.1424,0,0,0,0,0,0,-0.1796,-0.1782,-0.1694,-0.1689,-0.1738,-0.1682,-0.1672,-0.1652,-0.1601,-0.1593,-0.1623,-0.1621,-0.155,-0.1543,-0.1536,-0.1507,-0.1508,-0.1505,-0.1503,-0.1424,-0.1424,-0.1424,0,0,0,0,0,0,-0.1799,-0.1788,-0.1697,-0.1734,-0.1722,-0.1679,-0.1658,-0.1651,-0.1635,-0.1592,-0.1584,-0.1615,-0.155,-0.1541,-0.1509,-0.1504,-0.1503,-0.1501,-0.1425,-0.1424,-0.1424,-0.1449,0,0,0,0,0,0,-0.1802,-0.179,-0.1781,-0.1734,-0.172,-0.1671,-0.1658,-0.1649,-0.1629,-0.1627,-0.1582,-0.1575,-0.1549,-0.1514,-0.1506,-0.1499,-0.1498,-0.1425,-0.1424,-0.1424,-0.1448,-0.145,-0.1451,0,0,0,0,0,-0.1806,-0.1792,-0.1781,-0.177,-0.1709,-0.1671,-0.1663,-0.1633,-0.1629,-0.162,-0.1592,-0.1576,-0.1506,-0.1511,-0.1501,-0.1494,-0.1425,-0.1425,-0.1424,-0.1448,-0.1449,-0.1451,0,0,0,0,0,0,-0.1839,-0.1785,-0.1772,-0.1742,-0.1711,-0.1665,-0.1652,-0.1636,-0.1606,-0.1605,-0.157,-0.156,-0.1531,-0.1509,-0.1516,-0.147,-0.1464,-0.1461,-0.1485,-0.1486,-0.1487,-0.1493,-0.1495,0,0,0,0,0,-0.1843,-0.1817,-0.1771,-0.1748,-0.1733,-0.1696,-0.1678,-0.1658,-0.1625,-0.1612,-0.1581,-0.155,-0.1521,-0.1502,-0.1473,-0.1445,-0.1434,-0.1435,-0.1436,-0.1437,-0.1436,-0.1418,-0.1418,-0.1422,-0.1422,-0.1422,0,0,-0.185,-0.1817,-0.1803,-0.1754,-0.1728,-0.1701,-0.1685,-0.1658,-0.1638,-0.1608,-0.1576,-0.1552,-0.1515,-0.1485,-0.147,-0.1466,-0.1432,-0.1437,-0.1438,-0.1435,-0.1418,-0.1417,-0.1417,-0.1422,-0.1422,-0.1422,0,0,-0.185,-0.1823,-0.1801,-0.1775,-0.1735,-0.1709,-0.1704,-0.166,-0.1643,-0.161,-0.1587,-0.1562,-0.1513,-0.1487,-0.1467,-0.1456,-0.144,-0.1447,-0.1453,-0.1437,-0.1436,-0.1436,-0.1431,-0.143,-0.1446,-0.1446,-0.1446,0,-0.1865,-0.1823,-0.1792,-0.1765,-0.1744,-0.1715,-0.1692,-0.1669,-0.1622,-0.1608,-0.1604,-0.154,-0.1513,-0.1476,-0.1473,-0.1458,-0.1451,-0.1453,-0.1439,-0.1438,-0.1437,-0.1432,-0.1431,-0.1447,-0.1447,-0.1447,-0.1447,0,-0.1843,-0.1815,-0.1802,-0.1756,-0.1733,-0.1709,-0.1674,-0.1655,-0.1636,-0.1612,-0.1578,-0.1544,-0.1507,-0.1497,-0.1479,-0.1457,-0.1455,-0.1446,-0.1439,-0.1438,-0.1433,-0.1431,-0.1449,-0.1448,-0.1448,-0.1448,0,0,-0.1862,-0.1798,-0.1794,-0.1773,-0.1726,-0.1704,-0.1678,-0.1641,-0.1625,-0.1593,-0.1571,-0.1529,-0.1519,-0.1497,-0.1476,-0.1461,-0.1454,-0.1453,-0.1451,-0.1454,-0.1426,-0.1434,-0.1433,-0.1443,-0.1442,-0.1442,-0.1429,0,-0.1855,-0.1807,-0.1777,-0.1741,-0.1715,-0.1686,-0.1663,-0.1632,-0.1608,-0.1582,-0.1556,-0.1526,-0.1516,-0.1502,-0.1486,-0.1458,-0.1448,-0.1458,-0.1421,-0.142,-0.1431,-0.143,-0.1438,-0.1428,-0.1427,-0.1427,-0.1427,0,-0.1841,-0.1809,-0.177,-0.1726,-0.1713,-0.1694,-0.1657,-0.1632,-0.1596,-0.158,-0.1554,-0.1533,-0.1504,-0.1499,-0.1459,-0.1467,-0.145,-0.1433,-0.1432,-0.1428,-0.1424,-0.1425,-0.1425,-0.1423,-0.1423,-0.1424,-0.1424,0,-0.1858,-0.1806,-0.1775,-0.1758,-0.1706,-0.1692,-0.167,-0.1634,-0.1613,-0.1581,-0.1567,-0.1533,-0.1514,-0.1487,-0.1457,-0.1456,-0.1419,-0.1412,-0.1405,-0.1405,-0.1398,-0.1399,-0.1395,-0.1388,-0.1388,-0.1388,-0.1388,0,-0.1853,-0.1831,-0.1782,-0.1764,-0.1737,-0.1703,-0.1678,-0.1653,-0.1621,-0.1597,-0.1571,-0.1549,-0.151,-0.1483,-0.1459,-0.1429,-0.142,-0.1406,-0.14,-0.1408,-0.141,-0.1397,-0.1397,-0.1387,-0.1387,-0.1387,-0.1387,0,-0.1868,-0.1835,-0.18,-0.1753,-0.174,-0.1723,-0.1683,-0.1663,-0.1638,-0.1607,-0.1598,-0.1558,-0.1525,-0.1492,-0.1447,-0.1431,-0.1401,-0.1393,-0.1414,-0.141,-0.1404,-0.1405,-0.1391,-0.1387,-0.1383,-0.1383,-0.1383,0,-0.1868,-0.1849,-0.18,-0.1782,-0.176,-0.1731,-0.1709,-0.1675,-0.1654,-0.1611,-0.1597,-0.1562,-0.1532,-0.148,-0.1447,-0.1412,-0.1403,-0.14,-0.1398,-0.1406,-0.1402,-0.1404,-0.1402,-0.1402,-0.1402,-0.1402,-0.1402,0,-0.187,-0.1854,-0.1824,-0.1788,-0.1763,-0.1733,-0.1702,-0.1689,-0.1648,-0.1626,-0.1591,-0.1568,-0.1522,-0.1487,-0.1449,-0.1426,-0.1407,-0.1403,-0.1399,-0.1408,-0.142,-0.1413,-0.1416,-0.1404,-0.1403,-0.1403,-0.1403,-0.1403,-0.1877,-0.1859,-0.1821,-0.1788,-0.1761,-0.1733,-0.1712,-0.1683,-0.1654,-0.1614,-0.1595,-0.156,-0.1524,-0.147,-0.1447,-0.1419,-0.1414,-0.1409,-0.1408,-0.1407,-0.1409,-0.1425,-0.1412,-0.1412,-0.1412,-0.1412,-0.1412,0,-0.1877,-0.1851,-0.1821,-0.1778,-0.1753,-0.1737,-0.1701,-0.1681,-0.1651,-0.1618,-0.1589,-0.1549,-0.1515,-0.1478,-0.1442,-0.1427,-0.1417,-0.1418,-0.1419,-0.1414,-0.1415,-0.1422,-0.1427,-0.1427,-0.1427,-0.1427,-0.1427,-0.1427,-0.1874,-0.1843,-0.1822,-0.1777,-0.1751,-0.1717,-0.1698,-0.1671,-0.1645,-0.1602,-0.1573,-0.1549,-0.1515,-0.1476,-0.1443,-0.1433,-0.1421,-0.1425,-0.1413,-0.1415,-0.1414,-0.1413,-0.1419,-0.1423,-0.1423,-0.1413,-0.1413,-0.1413]},{"header":{"parameterUnit":"m.s-1","parameterCategory":1,"la1":30.2991,"la2":30.254,"lo1":-89.0895,"lo2":-89.0444,"dy":0.0017,"dx":0.0017,"nx":28,"ny":28,"refTime":"2024-08-19T09:00:00:Z","depth":0,"parameterNumber":3,"parameterNumberName":"V-component_of_WINDS"},"data":[0,0,0,0,0,0,0,0,0,0,0,0,0,0,0,0,0,0,0,0,0,0,0,0,0,0,0,0,0,0,0,0,0,0,0,0,0,0,0,0,0,0,0,0,0,0,0,0,0,0,0,0,0,0,0,0,0,0,-1.5025,-1.5026,0,-1.51,-1.5101,-1.5102,-1.5213,-1.5215,-1.5217,-1.5219,-1.5291,-1.5291,-1.5291,0,0,0,0,0,0,0,0,0,0,0,0,0,-1.4975,-1.4975,-1.5025,-1.5026,-1.5027,-1.51,-1.5101,-1.5102,-1.5213,-1.5215,-1.5217,-1.522,-1.5291,-1.5291,-1.5291,0,0,0,0,0,0,0,0,0,0,0,0,0,-1.5018,-1.4975,-1.5025,-1.5091,-1.5098,-1.51,-1.5101,-1.5103,-1.5212,-1.5215,-1.5218,-1.5221,-1.5291,-1.5291,-1.5291,-1.5234,0,0,-1.5292,-1.5292,0,0,0,0,0,0,0,0,-1.5015,-1.5019,-1.508,-1.5086,-1.5094,-1.5151,-1.511,-1.5146,-1.5211,-1.5168,-1.5219,-1.5222,-1.5241,-1.5246,-1.5253,-1.5237,-1.524,-1.5292,-1.5292,-1.5292,-1.5292,0,0,0,0,0,0,0,-1.5012,-1.5017,-1.5055,-1.5081,-1.5089,-1.5116,-1.5126,-1.5118,-1.5187,-1.5172,-1.5181,-1.5188,-1.5246,-1.5253,-1.5256,-1.5241,-1.5292,-1.5292,-1.5292,-1.5292,-1.5184,-1.5181,0,0,0,0,0,0,-1.5,-1.5014,-1.5052,-1.5057,-1.5061,-1.5115,-1.5125,-1.5129,-1.5188,-1.52,-1.5186,-1.5193,-1.5251,-1.5256,-1.5259,-1.5196,-1.5292,-1.5292,-1.5292,-1.5187,-1.5183,-1.518,0,0,0,0,0,0,-1.4998,-1.5002,-1.5049,-1.5038,-1.5046,-1.5113,-1.5116,-1.5129,-1.5137,-1.5198,-1.5211,-1.518,-1.5254,-1.5259,-1.524,-1.52,-1.5292,-1.5292,-1.5191,-1.5186,-1.5182,-1.507,0,0,0,0,0,0,-1.4996,-1.5001,-1.498,-1.5036,-1.5046,-1.5029,-1.5114,-1.5129,-1.5137,-1.5148,-1.5196,-1.5207,-1.5256,-1.5239,-1.524,-1.5202,-1.5292,-1.5194,-1.5188,-1.5183,-1.5077,-1.5062,-1.5049,0,0,0,0,0,-1.4994,-1.4943,-1.4978,-1.4982,-1.5021,-1.5027,-1.5032,-1.5091,-1.5133,-1.5113,-1.5153,-1.5206,-1.5205,-1.5236,-1.5238,-1.52,-1.5197,-1.519,-1.5184,-1.5083,-1.5065,-1.5049,0,0,0,0,0,0,-1.4877,-1.4952,-1.4991,-1.4957,-1.4985,-1.5045,-1.502,-1.5069,-1.5084,-1.5093,-1.5164,-1.5174,-1.5147,-1.5172,-1.5205,-1.5149,-1.5209,-1.5203,-1.5132,-1.5115,-1.5102,-1.5095,-1.5292,0,0,0,0,0,-1.4848,-1.4848,-1.4913,-1.4877,-1.4889,-1.4952,-1.4957,-1.5001,-1.5031,-1.5043,-1.5082,-1.5108,-1.5115,-1.5117,-1.5126,-1.5083,-1.5095,-1.5058,-1.5044,-1.5032,-1.5024,-1.5005,-1.4989,-1.5158,-1.5158,-1.5159,0,0,-1.4787,-1.4828,-1.4822,-1.4854,-1.4881,-1.4878,-1.4961,-1.4954,-1.4952,-1.5041,-1.5026,-1.5056,-1.5091,-1.506,-1.5049,-1.508,-1.4981,-1.5023,-1.5013,-1.5012,-1.4996,-1.498,-1.4966,-1.5154,-1.5155,-1.5155,0,0,-1.4673,-1.4704,-1.4679,-1.4705,-1.4745,-1.4789,-1.4783,-1.4837,-1.486,-1.4847,-1.4915,-1.4914,-1.4923,-1.4946,-1.4958,-1.4859,-1.4908,-1.486,-1.4785,-1.4765,-1.4752,-1.474,-1.4704,-1.4691,-1.4853,-1.4853,-1.4852,0,-1.4591,-1.4591,-1.4659,-1.4649,-1.4661,-1.4745,-1.472,-1.4741,-1.4781,-1.4788,-1.4824,-1.4839,-1.4869,-1.4845,-1.4821,-1.4829,-1.4824,-1.4853,-1.4748,-1.4737,-1.4728,-1.4694,-1.4681,-1.4846,-1.4847,-1.4848,-1.4848,0,-1.4488,-1.4487,-1.4461,-1.4501,-1.4511,-1.4492,-1.4558,-1.456,-1.4604,-1.4644,-1.463,-1.467,-1.4689,-1.4687,-1.4729,-1.467,-1.4689,-1.4735,-1.4797,-1.4704,-1.4674,-1.4662,-1.4838,-1.484,-1.4842,-1.4843,0,0,-1.4298,-1.438,-1.4369,-1.4389,-1.4442,-1.4442,-1.4429,-1.445,-1.4451,-1.4477,-1.4467,-1.4475,-1.452,-1.4535,-1.4581,-1.4563,-1.4482,-1.4613,-1.4615,-1.4586,-1.4421,-1.4383,-1.4367,-1.4517,-1.4515,-1.4513,-1.4417,0,-1.4194,-1.4176,-1.4239,-1.4205,-1.4206,-1.4288,-1.4277,-1.4308,-1.4346,-1.4351,-1.4393,-1.4397,-1.4456,-1.4466,-1.4453,-1.4495,-1.445,-1.4503,-1.4508,-1.4507,-1.4494,-1.4352,-1.4312,-1.4219,-1.4406,-1.4404,-1.4403,0,-1.4068,-1.4091,-1.4057,-1.4116,-1.4118,-1.4107,-1.4133,-1.4138,-1.4175,-1.4204,-1.4223,-1.4277,-1.4269,-1.433,-1.4319,-1.4354,-1.4361,-1.4382,-1.438,-1.4381,-1.4447,-1.4347,-1.4191,-1.4176,-1.4385,-1.4386,-1.4388,0,-1.3932,-1.3955,-1.3938,-1.3953,-1.402,-1.4011,-1.4038,-1.408,-1.4089,-1.4112,-1.412,-1.414,-1.4151,-1.4166,-1.4225,-1.4265,-1.4207,-1.4274,-1.423,-1.4229,-1.4212,-1.4211,-1.4053,-1.4219,-1.4219,-1.4219,-1.4219,0,-1.3808,-1.3784,-1.3879,-1.3868,-1.3844,-1.3918,-1.3893,-1.3928,-1.3965,-1.3963,-1.4036,-1.4032,-1.4111,-1.4116,-1.4163,-1.4147,-1.4151,-1.4174,-1.4186,-1.4166,-1.4163,-1.4169,-1.4176,-1.4216,-1.4216,-1.4217,-1.4218,0,-1.365,-1.3713,-1.37,-1.3767,-1.3783,-1.3763,-1.382,-1.3813,-1.3857,-1.3854,-1.3857,-1.3926,-1.3936,-1.3998,-1.4021,-1.4053,-1.402,-1.4046,-1.4007,-1.4015,-1.3968,-1.3971,-1.3805,-1.3788,-1.3966,-1.3964,-1.3963,0,-1.3565,-1.3549,-1.3615,-1.3621,-1.3645,-1.3652,-1.3664,-1.3737,-1.3746,-1.379,-1.3778,-1.3795,-1.3812,-1.3825,-1.3876,-1.3895,-1.3921,-1.3863,-1.3924,-1.3906,-1.3919,-1.3919,-1.3918,-1.3848,-1.3845,-1.3844,-1.3842,0,-1.3408,-1.3441,-1.3455,-1.3482,-1.3494,-1.3518,-1.3546,-1.3545,-1.3627,-1.3633,-1.3646,-1.366,-1.3686,-1.3702,-1.3731,-1.3759,-1.3813,-1.3823,-1.3814,-1.3792,-1.377,-1.3781,-1.3969,-1.3826,-1.3827,-1.3828,-1.3829,-1.383,-1.3283,-1.3274,-1.332,-1.3334,-1.3364,-1.339,-1.3387,-1.3433,-1.3446,-1.3474,-1.3517,-1.3524,-1.3566,-1.3611,-1.3635,-1.3641,-1.3673,-1.3659,-1.3656,-1.3651,-1.3641,-1.3771,-1.3647,-1.3648,-1.3648,-1.3649,-1.3649,0,-1.3129,-1.3164,-1.3177,-1.3216,-1.3227,-1.3282,-1.3317,-1.3323,-1.3329,-1.3364,-1.3381,-1.3396,-1.3413,-1.3468,-1.3491,-1.3485,-1.3511,-1.3489,-1.3488,-1.3494,-1.3611,-1.3617,-1.3467,-1.3467,-1.3468,-1.3468,-1.3468,-1.3468,-1.3049,-1.3037,-1.3076,-1.3079,-1.3115,-1.3124,-1.3139,-1.3164,-1.3192,-1.3207,-1.3223,-1.326,-1.3303,-1.333,-1.3348,-1.3364,-1.3368,-1.3337,-1.3361,-1.3468,-1.3486,-1.3502,-1.3508,-1.3338,-1.3338,-1.3243,-1.3242,-1.3242]}]]